Wind_Speed
10 8 7 7 6 8 8 2 2 4 5 1 4 5 3 2 7 7 5 5 7 9 4 7 2 4 4 4 4 4 1 2 3 7 7 11 10 7 4 2 4 2 1 3
9 9 9 7 7 8 5 2 6 7 6 2 2 5 6 11 13 16 5 5 6 5 2 5 9 6 5 4 1 4 3 1 3 7 4 5 3 10 9 6 1 4 3 2
9 9 8 7 8 7 5 2 2 2 4 3 3 4 7 6 10 11 8 9 11 12 6 3 9 5 4 14 2 6 3 2 2 2 3 2 6 11 7 8 2 2 4 0
9 8 7 9 9 7 7 6 3 3 2 1 2 4 5 7 4 7 8 5 3 4 4 3 10 4 2 3 3 3 3 2 1 6 7 8 11 12 11 8 6 4 3 8
10 10 9 8 7 8 13 5 3 2 3 6 3 5 2 8 6 6 6 5 13 5 5 4 10 2 2 2 3 2 2 1 2 4 4 8 10 11 11 13 11 11 16 12
13 12 11 10 10 11 9 8 6 2 2 1 2 2 5 9 13 8 11 10 10 8 11 13 14 10 6 4 2 1 2 3 2 4 6 10 7 0 6 5 11 6 11 8
15 15 15 14 13 15 15 8 5 2 2 3 4 7 10 11 12 12 20 14 7 6 15 20 16 10 9 4 5 3 4 4 3 3 4 3 5 12 8 5 5 8 9 9
16 16 16 16 16 16 18 16 13 5 3 8 6 9 5 14 16 9 13 9 14 23 13 3 4 3 3 5 8 9 7 4 2 2 3 6 11 3 3 8 8 2 6 6
17 15 15 15 14 15 19 18 16 11 2 6 18 7 8 3 4 5 5 14 14 4 2 2 3 3 3 2 4 2 5 3 3 1 2 3 4 8 4 6 6 3 5 6
20 19 19 18 17 16 19 19 17 15 6 10 14 5 5 3 2 3 4 13 8 3 1 1 2 1 2 2 2 3 3 2 8 6 3 6 5 12 12 3 5 13 10 22
19 20 20 20 19 19 21 23 21 19 8 15 14 9 9 5 4 1 7 6 5 4 3 1 0 1 3 1 3 2 5 4 3 3 4 7 15 11 3 4 17 15 21 23
21 22 22 23 23 23 23 25 23 22 17 11 11 14 21 28 24 14 4 3 2 4 3 2 2 2 3 0 2 1 1 1 2 5 2 5 10 10 13 11 20 10 22 17
23 23 23 24 26 26 28 32 25 20 17 19 25 27 25 25 23 12 6 6 3 5 12 2 1 3 1 2 3 2 2 3 1 1 8 9 12 19 23 21 24 19 16 14
25 25 28 31 31 31 31 34 34 26 6 4 10 8 13 12 13 19 24 24 11 13 8 3 2 2 0 2 4 1 3 2 3 1 9 14 12 13 18 18 20 18 15 14
23 24 23 27 30 29 31 38 34 29 18 3 6 13 14 13 11 13 18 24 24 19 3 2 2 3 3 2 1 3 5 3 2 2 6 9 8 8 10 17 17 14 12 13
21 18 16 19 18 22 33 7 25 25 24 3 3 5 6 4 10 18 18 17 18 13 2 3 5 3 3 3 2 5 8 11 2 3 14 14 13 10 9 13 12 11 9 9
14 15 15 12 22 27 18 8 9 29 21 3 3 4 3 9 7 13 15 18 12 9 6 5 4 4 4 1 1 5 11 14 10 7 2 6 8 9 9 9 10 8 9 9
14 14 17 17 30 22 11 6 10 31 18 5 2 4 2 4 5 4 7 8 9 8 5 2 3 4 0 2 5 6 5 7 13 12 8 11 11 6 8 7 5 6 8 7
22 25 33 37 20 7 8 12 22 25 6 5 4 2 3 1 5 5 6 6 2 5 3 3 3 1 2 4 7 7 9 5 4 5 7 8 6 6 5 5 6 6 6 6
35 39 14 7 12 18 29 14 9 10 6 5 3 5 2 3 6 6 7 7 4 4 5 6 2 2 8 7 6 4 4 5 1 1 3 3 4 3 5 5 5 6 8 8
33 7 4 21 18 6 2 4 4 6 3 6 6 14 4 8 2 2 7 3 2 3 3 3 2 2 3 3 4 4 5 5 4 1 0 1 1 3 4 6 7 7 7 7
14 14 26 23 6 4 3 4 3 4 4 5 4 5 10 4 4 2 2 2 1 2 7 2 2 2 8 4 3 2 2 2 2 3 4 4 3 2 2 5 6 7 7 7
30 14 7 6 5 4 4 5 3 3 4 5 5 2 3 2 1 1 1 3 2 4 3 2 1 11 9 7 4 2 1 1 2 2 2 3 4 6 7 11 12 11 11 11
5 5 6 3 3 3 4 3 2 2 1 7 11 4 2 2 3 1 1 2 2 2 2 4 2 10 8 6 4 4 5 6 8 8 8 10 11 13 13 13 12 10 9 9
3 3 2 1 0 2 1 3 4 3 4 7 7 4 3 2 1 0 2 2 1 2 3 2 12 10 7 7 7 9 11 13 14 14 14 15 14 14 14 12 10 8 7 6
3 5 3 3 3 3 4 5 4 3 5 5 2 2 3 2 2 3 1 1 3 3 2 13 14 11 10 10 10 12 13 14 15 15 14 14 13 12 11 9 7 6 4 3
4 3 8 9 8 5 4 3 3 3 2 2 3 4 2 1 3 1 1 3 3 10 15 13 11 12 12 12 13 14 14 14 14 14 13 12 10 9 7 6 7 6 6 5
Wind_Direction
281 285 285 291 293 315 305 342 347 227 350 315 196 230 258 245 290 310 289 284 272 255 334 295 359 301 169 252 182 155 156 84 277 245 238 184 186 196 176 211 173 191 46 266
276 271 276 282 287 296 302 291 273 290 267 169 261 305 283 283 265 269 265 289 308 11 17 315 286 311 347 27 168 166 173 124 319 317 36 43 151 181 195 214 52 231 177 235
272 268 275 273 269 277 255 245 320 304 180 240 162 271 268 255 292 296 298 286 275 286 271 232 292 313 3 323 335 76 75 85 116 241 292 245 314 341 274 212 196 172 219 227
258 260 263 261 261 253 226 202 221 250 278 225 298 265 303 292 297 283 241 289 323 348 269 294 271 276 324 17 58 51 84 124 353 280 278 278 267 254 256 262 247 232 267 226
261 264 263 258 246 232 217 204 191 203 293 309 12 4 286 307 347 321 296 286 329 303 272 264 285 255 314 273 337 82 23 140 42 280 316 330 291 250 243 219 247 274 255 268
259 262 257 252 244 233 224 227 190 242 249 17 353 259 280 298 315 295 322 315 310 287 263 276 281 289 287 272 325 103 108 116 70 279 341 326 297 359 294 211 194 174 245 254
261 258 255 252 242 236 236 217 208 174 268 203 217 263 280 296 308 293 300 310 256 253 305 293 284 264 277 254 258 215 149 150 146 252 346 269 259 318 36 317 208 188 196 215
259 254 249 247 239 232 234 234 217 192 252 232 259 254 292 307 293 274 280 336 313 287 265 244 225 321 334 264 222 209 201 141 182 183 196 291 302 348 63 14 286 213 273 206
255 252 249 241 237 227 235 235 234 230 205 232 241 262 278 294 307 321 280 321 338 275 222 197 163 175 206 263 317 225 120 105 139 146 220 253 243 348 321 44 273 343 278 181
254 252 246 240 236 226 228 232 232 228 262 252 261 218 247 243 293 279 302 327 340 353 328 55 141 221 271 234 240 166 119 148 210 215 240 280 295 325 322 104 298 337 268 161
250 248 245 242 237 230 230 234 231 221 236 261 258 263 232 225 235 224 324 340 7 305 7 320 202 185 247 277 239 190 180 168 193 168 211 254 353 319 228 131 52 36 69 107
252 250 245 242 240 234 230 227 232 227 233 255 264 259 253 251 259 266 294 299 214 292 308 12 310 313 349 307 264 289 27 229 240 184 195 51 26 48 67 109 103 80 83 90
251 248 242 241 241 235 227 224 221 208 231 264 270 262 269 261 254 244 232 263 190 279 307 295 295 272 270 284 261 302 243 153 205 238 139 96 59 64 76 82 69 75 102 117
254 251 248 245 237 233 229 218 218 204 184 232 273 272 258 263 254 233 233 241 261 284 286 278 294 282 151 265 295 336 342 332 9 4 122 100 71 72 88 77 80 83 93 96
260 251 256 251 240 239 220 219 217 199 190 224 279 295 279 253 233 226 229 238 242 256 254 263 266 259 305 221 243 42 358 355 347 28 13 78 72 55 90 97 91 91 88 94
249 243 270 245 257 203 194 148 191 196 207 295 310 301 284 299 219 218 234 229 220 224 277 286 269 254 227 296 76 20 22 8 180 110 82 87 100 90 80 88 88 85 89 87
242 241 250 223 196 182 152 159 175 187 187 200 258 276 250 177 227 228 225 221 211 210 222 228 258 272 199 302 85 23 38 47 63 44 26 70 59 95 81 73 67 66 77 84
212 175 172 155 147 135 131 128 154 169 166 201 229 257 282 197 190 159 153 152 182 206 221 225 246 283 301 99 55 27 25 38 46 48 80 114 124 108 68 54 46 44 49 56
144 144 147 140 128 107 126 120 151 163 179 189 201 203 240 245 212 152 152 164 165 204 206 212 183 49 52 47 87 48 29 28 21 74 98 110 90 80 55 26 23 50 75 73
150 144 125 109 145 127 117 122 141 184 229 237 236 213 227 193 233 172 160 165 206 192 211 165 86 88 90 79 82 62 26 6 248 177 79 67 81 70 64 79 103 100 99 96
136 127 90 137 137 130 163 138 176 185 213 221 230 206 177 220 246 156 189 172 143 189 197 209 126 108 98 114 75 39 21 25 53 57 263 221 175 122 106 101 112 123 119 103
146 129 130 131 166 171 180 185 186 215 227 201 195 214 196 191 211 227 155 162 121 178 148 108 97 121 133 120 71 54 22 4 39 84 100 105 113 99 119 136 140 137 126 117
121 123 150 155 172 183 201 177 195 206 204 191 161 92 107 160 227 70 103 204 199 130 44 89 78 129 131 132 117 76 76 145 170 161 126 117 119 117 113 112 108 115 118 110
127 139 136 209 197 220 190 172 190 103 354 152 130 98 133 69 38 358 146 267 50 82 121 203 145 140 153 154 166 162 142 148 149 141 136 128 124 120 117 116 115 120 117 111
88 85 133 194 12 50 163 136 113 83 111 124 113 92 86 75 88 143 81 38 51 168 199 195 154 160 158 149 140 133 126 126 125 126 127 125 123 119 112 107 106 105 101 97
76 53 84 91 83 5 50 77 86 83 119 106 84 113 67 92 117 61 217 91 224 235 194 143 148 144 142 135 131 127 124 122 119 117 115 114 113 112 112 113 111 105 91 70
61 43 66 84 76 63 56 56 51 88 51 89 50 68 152 65 59 92 44 179 221 141 142 144 142 144 142 137 133 129 126 122 118 115 113 110 105 101 105 110 109 101 86 60
Height
1475 1474 1475 1475 1476 1476 1476 1476 1477 1473 1474 1477 1474 1474 1469 1467 1463 1462 1459 1453 1450 1447 1445 1438 1427 1425 1417 1416 1416 1421 1422 1423 1426 1416 1404 1404 1409 1417 1420 1419 1419 1417 1416 1411
1472 1472 1472 1473 1475 1475 1476 1476 1475 1472 1473 1480 1471 1470 1467 1467 1464 1462 1458 1453 1448 1444 1444 1451 1430 1424 1415 1416 1417 1419 1419 1424 1428 1414 1407 1406 1412 1414 1418 1418 1417 1413 1415 1409
1468 1469 1470 1471 1472 1473 1475 1477 1476 1471 1471 1470 1470 1472 1466 1465 1460 1457 1455 1452 1449 1447 1443 1440 1438 1428 1419 1419 1417 1417 1417 1424 1428 1433 1425 1424 1421 1417 1411 1413 1415 1413 1412 1403
1465 1466 1467 1468 1470 1471 1473 1474 1473 1473 1478 1470 1469 1468 1466 1461 1458 1454 1453 1450 1448 1449 1444 1437 1441 1426 1423 1421 1419 1419 1422 1427 1428 1426 1423 1421 1418 1416 1413 1415 1413 1413 1403 1402
1461 1463 1464 1466 1468 1469 1470 1471 1471 1472 1471 1469 1468 1466 1463 1460 1462 1457 1450 1448 1447 1446 1444 1439 1438 1427 1424 1421 1421 1422 1424 1431 1431 1429 1419 1419 1415 1408 1404 1406 1409 1411 1407 1401
1458 1459 1461 1463 1465 1466 1467 1468 1468 1470 1469 1469 1470 1466 1462 1461 1460 1451 1448 1447 1448 1443 1437 1435 1432 1428 1425 1426 1423 1424 1426 1430 1434 1429 1424 1422 1416 1403 1399 1396 1401 1401 1403 1397
1453 1455 1457 1459 1461 1462 1465 1466 1468 1469 1469 1467 1466 1463 1461 1460 1458 1454 1447 1445 1442 1435 1432 1432 1427 1424 1422 1422 1423 1424 1428 1431 1437 1437 1429 1432 1403 1397 1394 1392 1391 1394 1395 1397
1448 1450 1452 1454 1456 1459 1460 1463 1465 1466 1466 1464 1463 1461 1460 1459 1455 1451 1445 1441 1440 1434 1434 1432 1427 1429 1424 1420 1419 1421 1421 1427 1435 1438 1436 1421 1405 1396 1395 1399 1396 1394 1395 1396
1444 1446 1448 1450 1452 1455 1456 1459 1462 1463 1463 1460 1459 1458 1458 1458 1453 1448 1443 1440 1433 1430 1425 1428 1425 1428 1421 1419 1415 1416 1421 1424 1431 1438 1431 1431 1404 1398 1393 1394 1397 1394 1392 1393
1438 1440 1442 1445 1447 1450 1452 1454 1457 1460 1459 1455 1456 1456 1456 1454 1454 1453 1447 1442 1436 1430 1430 1427 1430 1425 1420 1421 1417 1418 1426 1431 1429 1430 1433 1421 1402 1401 1397 1404 1404 1395 1389 1391
1432 1434 1437 1439 1442 1445 1447 1448 1451 1455 1455 1452 1453 1452 1452 1451 1451 1452 1447 1444 1441 1436 1435 1431 1427 1432 1422 1420 1416 1418 1420 1425 1430 1428 1426 1426 1407 1400 1399 1401 1400 1401 1396 1397
1426 1428 1430 1432 1435 1439 1442 1443 1446 1450 1453 1449 1447 1446 1445 1446 1447 1450 1448 1448 1447 1445 1437 1435 1433 1433 1433 1423 1424 1416 1427 1419 1418 1416 1416 1416 1413 1409 1401 1402 1399 1407 1404 1409
1418 1420 1422 1425 1428 1431 1434 1436 1440 1447 1449 1447 1443 1438 1439 1441 1442 1445 1448 1444 1445 1445 1443 1440 1436 1434 1430 1432 1423 1416 1413 1412 1412 1412 1414 1416 1416 1413 1409 1409 1409 1411 1413 1411
1410 1411 1413 1415 1418 1421 1426 1427 1432 1439 1445 1444 1436 1434 1433 1434 1434 1436 1439 1441 1442 1442 1441 1439 1437 1435 1430 1427 1422 1419 1418 1415 1417 1414 1415 1416 1418 1418 1414 1415 1414 1417 1419 1420
1402 1402 1402 1405 1407 1410 1416 1420 1425 1431 1440 1439 1435 1433 1430 1430 1431 1432 1435 1437 1440 1441 1441 1439 1436 1432 1430 1425 1421 1422 1423 1424 1419 1416 1420 1417 1421 1421 1421 1418 1420 1423 1426 1427
1394 1396 1396 1397 1399 1401 1409 1419 1424 1429 1436 1440 1438 1431 1426 1427 1427 1431 1432 1434 1437 1439 1439 1437 1433 1430 1429 1421 1421 1429 1427 1424 1421 1423 1422 1422 1424 1423 1425 1423 1424 1424 1425 1429
1389 1391 1392 1392 1394 1399 1408 1414 1416 1424 1435 1439 1436 1429 1425 1426 1427 1427 1428 1431 1434 1436 1438 1436 1431 1427 1428 1424 1424 1431 1430 1427 1427 1427 1427 1428 1428 1428 1428 1428 1430 1430 1430 1431
1383 1387 1390 1394 1399 1406 1411 1412 1414 1423 1432 1435 1435 1428 1425 1424 1423 1424 1426 1428 1432 1432 1433 1432 1429 1425 1424 1429 1433 1433 1433 1432 1432 1430 1429 1429 1431 1432 1430 1431 1433 1432 1430 1431
1384 1388 1393 1398 1406 1410 1413 1415 1420 1426 1432 1429 1428 1427 1429 1420 1419 1421 1424 1426 1430 1429 1429 1427 1428 1428 1435 1436 1437 1438 1436 1435 1436 1435 1434 1433 1433 1434 1434 1434 1433 1433 1435 1434
1384 1392 1399 1407 1410 1414 1416 1424 1426 1430 1427 1424 1419 1416 1417 1420 1417 1417 1420 1422 1423 1421 1421 1422 1425 1438 1440 1439 1439 1439 1438 1437 1436 1435 1435 1435 1435 1435 1436 1437 1437 1437 1437 1437
1389 1394 1400 1406 1412 1416 1418 1420 1421 1422 1420 1416 1413 1412 1412 1414 1412 1409 1412 1414 1414 1416 1417 1417 1424 1433 1439 1440 1439 1438 1438 1437 1436 1436 1435 1435 1436 1437 1437 1437 1438 1439 1440 1440
1389 1391 1401 1409 1413 1415 1417 1415 1416 1415 1411 1408 1407 1407 1409 1409 1410 1408 1410 1410 1413 1409 1414 1417 1431 1440 1440 1440 1440 1439 1439 1438 1437 1437 1436 1437 1437 1437 1438 1439 1440 1441 1442 1443
1391 1397 1402 1405 1409 1409 1408 1408 1407 1406 1404 1403 1403 1406 1406 1408 1408 1408 1409 1408 1416 1411 1420 1430 1436 1439 1441 1442 1441 1439 1439 1439 1439 1439 1438 1439 1440 1441 1441 1442 1443 1444 1446 1447
1389 1393 1398 1400 1403 1404 1404 1404 1402 1402 1401 1401 1403 1406 1407 1408 1409 1409 1409 1414 1413 1419 1432 1432 1438 1439 1441 1442 1441 1441 1441 1441 1441 1442 1442 1443 1444 1445 1446 1447 1448 1450 1450 1450
1389 1391 1404 1402 1399 1400 1400 1401 1402 1402 1402 1403 1405 1407 1408 1410 1411 1411 1411 1415 1429 1430 1434 1438 1437 1439 1440 1441 1442 1443 1443 1444 1444 1445 1446 1448 1449 1450 1450 1451 1452 1453 1453 1454
1392 1396 1399 1399 1400 1401 1401 1401 1402 1402 1403 1404 1404 1408 1413 1412 1416 1415 1427 1423 1430 1437 1435 1436 1438 1440 1442 1443 1445 1446 1447 1448 1449 1450 1451 1452 1453 1454 1454 1455 1456 1456 1456 1456
1396 1401 1401 1401 1402 1403 1403 1403 1403 1403 1404 1407 1407 1417 1411 1416 1424 1427 1431 1437 1435 1432 1435 1438 1440 1442 1444 1445 1447 1448 1450 1451 1452 1453 1454 1455 1456 1457 1457 1457 1457 1458 1458 1458